KRH648R KADW-TXKF

Flight info

Callsign KRH648R
Flight time 1h 44m
Altitude 39000
Route SIE B24 WEBBB/M079F380 Y484 OKONU/M079F390 L457 ENAPI MOMOM1
Aircraft A21N/M-SDE2E3FGHIRWXY/LB1

Departure

Time 2026-04-30 21:02
Airport Joint Base Andrews (KADW)

Arrival

Time 2026-04-30 22:47
Airport L.F. Wade International Airport (TXKF)
Time Latitude Longitude Altitude Speed Heading
2026-04-30 20:50 38.80670 -76.87721 277 ft 0 kts 359°
2026-04-30 20:58 38.80684 -76.87721 282 ft 3 kts 359°
2026-04-30 20:58 38.80713 -76.87711 281 ft 6 kts 47°
2026-04-30 20:58 38.80731 -76.87659 280 ft 8 kts 77°
2026-04-30 20:58 38.80737 -76.87579 280 ft 10 kts 86°
2026-04-30 20:59 38.80639 -76.87448 275 ft 16 kts 181°
2026-04-30 20:59 38.80522 -76.87447 282 ft 19 kts 179°
2026-04-30 21:00 38.80238 -76.87444 278 ft 22 kts 179°
2026-04-30 21:00 38.79903 -76.87441 275 ft 25 kts 180°
2026-04-30 21:01 38.79798 -76.87103 275 ft 10 kts 39°
2026-04-30 21:01 38.79862 -76.87062 273 ft 11 kts
2026-04-30 21:01 38.80336 -76.87064 276 ft 96 kts 357°
2026-04-30 21:02 38.81204 -76.87069 292 ft 153 kts 359°
2026-04-30 21:02 38.82030 -76.86998 795 ft 144 kts 356°
2026-04-30 21:02 38.82923 -76.86950 1358 ft 140 kts 354°
2026-04-30 21:02 38.83890 -76.86968 1795 ft 144 kts 343°
2026-04-30 21:03 38.84859 -76.87396 2268 ft 156 kts 344°
2026-04-30 21:03 38.86002 -76.87392 2822 ft 175 kts 356°
2026-04-30 21:03 38.87274 -76.87342 3492 ft 197 kts
2026-04-30 21:03 38.88625 -76.86585 4272 ft 225 kts 33°
2026-04-30 21:04 38.89609 -76.84851 4884 ft 260 kts 68°
2026-04-30 21:04 38.89949 -76.82517 5652 ft 279 kts 82°
2026-04-30 21:04 38.90340 -76.77688 7611 ft 292 kts 82°
2026-04-30 21:05 38.90584 -76.75069 8678 ft 298 kts 82°
2026-04-30 21:05 38.90848 -76.72386 9765 ft 304 kts 82°
2026-04-30 21:05 38.91122 -76.69687 10548 ft 320 kts 82°
2026-04-30 21:05 38.91433 -76.66710 11048 ft 347 kts 82°
2026-04-30 21:06 38.91768 -76.63512 11473 ft 373 kts 82°
2026-04-30 21:06 38.92126 -76.60101 11864 ft 397 kts 82°
2026-04-30 21:06 38.92499 -76.56545 12224 ft 419 kts 82°
2026-04-30 21:06 38.92893 -76.52758 12563 ft 437 kts 82°
2026-04-30 21:07 38.93298 -76.48845 13093 ft 447 kts 82°
2026-04-30 21:07 38.93709 -76.44857 13720 ft 454 kts 83°
2026-04-30 21:07 38.94129 -76.40793 14265 ft 459 kts 83°
2026-04-30 21:07 38.94550 -76.36695 14832 ft 464 kts 83°
2026-04-30 21:08 38.94973 -76.32562 15450 ft 469 kts 83°
2026-04-30 21:08 38.95395 -76.28422 16033 ft 473 kts 83°
2026-04-30 21:08 38.95825 -76.24193 16571 ft 478 kts 83°
2026-04-30 21:08 38.96256 -76.19940 17065 ft 482 kts 83°
2026-04-30 21:09 38.96686 -76.15693 17585 ft 487 kts 83°
2026-04-30 21:09 38.97128 -76.11296 18091 ft 491 kts 83°
2026-04-30 21:09 38.97560 -76.06997 18562 ft 495 kts 83°
2026-04-30 21:09 38.98000 -76.02579 19039 ft 498 kts 83°
2026-04-30 21:10 38.98441 -75.98144 19532 ft 502 kts 83°
2026-04-30 21:10 38.98888 -75.93622 20046 ft 506 kts 83°
2026-04-30 21:10 38.99315 -75.89284 20515 ft 509 kts 83°
2026-04-30 21:10 38.99747 -75.84817 21038 ft 512 kts 84°
2026-04-30 21:11 39.00188 -75.80248 21646 ft 516 kts 84°
2026-04-30 21:11 39.00641 -75.75643 22223 ft 520 kts 84°
2026-04-30 21:11 39.01099 -75.71018 22761 ft 523 kts 84°
2026-04-30 21:11 39.01553 -75.66359 23289 ft 527 kts 84°
2026-04-30 21:12 39.02001 -75.61669 23754 ft 530 kts 84°
2026-04-30 21:12 39.02449 -75.56949 24246 ft 532 kts 84°
2026-04-30 21:12 39.02903 -75.52209 24857 ft 530 kts 84°
2026-04-30 21:12 39.03351 -75.47508 25475 ft 529 kts 84°
2026-04-30 21:13 39.03789 -75.42884 26091 ft 527 kts 84°
2026-04-30 21:13 39.04227 -75.38228 26730 ft 524 kts 85°
2026-04-30 21:13 39.04663 -75.33585 27385 ft 521 kts 85°
2026-04-30 21:13 39.05097 -75.28928 27920 ft 522 kts 85°
2026-04-30 21:14 39.05529 -75.24273 28421 ft 522 kts 85°
2026-04-30 21:14 39.05957 -75.19649 29108 ft 519 kts 85°
2026-04-30 21:14 39.06384 -75.15038 29771 ft 516 kts 85°
2026-04-30 21:14 39.06803 -75.10453 30324 ft 514 kts 85°
2026-04-30 21:15 39.07213 -75.05936 30844 ft 513 kts 85°
2026-04-30 21:15 39.07627 -75.01362 31235 ft 514 kts 85°
2026-04-30 21:15 39.08040 -74.96792 31743 ft 513 kts 85°
2026-04-30 21:15 39.08451 -74.92226 32232 ft 512 kts 85°
2026-04-30 21:16 39.08848 -74.87734 32693 ft 511 kts 86°
2026-04-30 21:16 39.08913 -74.83140 33143 ft 506 kts 98°
2026-04-30 21:16 39.08270 -74.78703 33562 ft 497 kts 111°
2026-04-30 21:16 39.06969 -74.74684 33936 ft 488 kts 124°
2026-04-30 21:17 39.05206 -74.70945 34240 ft 485 kts 128°
2026-04-30 21:17 39.03367 -74.67287 34480 ft 487 kts 129°
2026-04-30 21:17 39.01518 -74.63598 34629 ft 492 kts 128°
2026-04-30 21:17 38.99678 -74.59882 34822 ft 495 kts 128°
2026-04-30 21:18 38.95994 -74.52372 34862 ft 501 kts 128°
2026-04-30 21:18 38.92274 -74.44793 34837 ft 501 kts 128°
2026-04-30 21:19 38.88560 -74.37256 34831 ft 501 kts 128°
2026-04-30 21:19 38.84833 -74.29713 34825 ft 501 kts 128°
2026-04-30 21:20 38.81098 -74.22169 34832 ft 501 kts 128°
2026-04-30 21:20 38.77345 -74.14608 34830 ft 501 kts 128°
2026-04-30 21:21 38.73621 -74.07114 34834 ft 501 kts 129°
2026-04-30 21:22 38.67993 -73.95832 34804 ft 500 kts 129°
2026-04-30 21:23 38.60481 -73.80865 34834 ft 500 kts 129°
2026-04-30 21:23 38.54823 -73.69631 34840 ft 500 kts 129°
2026-04-30 21:24 38.51052 -73.62167 34827 ft 499 kts 129°
2026-04-30 21:24 38.47230 -73.54841 34842 ft 498 kts 131°
2026-04-30 21:25 38.41488 -73.43743 34844 ft 499 kts 129°
2026-04-30 21:26 38.35865 -73.32568 34835 ft 501 kts 129°
2026-04-30 21:27 38.30232 -73.21414 34834 ft 499 kts 130°
2026-04-30 21:27 38.26467 -73.13984 34841 ft 499 kts 130°
2026-04-30 21:28 38.20799 -73.02823 34841 ft 499 kts 130°
2026-04-30 21:29 38.15130 -72.91753 34828 ft 499 kts 130°
2026-04-30 21:30 38.05602 -72.73393 34817 ft 499 kts 130°
2026-04-30 21:31 37.96741 -72.56150 34825 ft 500 kts 130°
2026-04-30 21:32 37.90490 -72.43863 34833 ft 499 kts 130°
2026-04-30 21:32 37.87334 -72.37688 34831 ft 499 kts 130°
2026-04-30 21:33 37.81705 -72.26639 34831 ft 499 kts 130°
2026-04-30 21:34 37.77938 -72.19261 34823 ft 499 kts 130°
2026-04-30 21:34 37.72281 -72.08229 34787 ft 500 kts 130°
2026-04-30 21:35 37.67724 -72.01853 34818 ft 477 kts 152°
2026-04-30 21:35 37.64914 -71.99727 34828 ft 463 kts 163°
2026-04-30 21:35 37.61917 -71.98369 34831 ft 450 kts 174°
2026-04-30 21:36 37.58863 -71.97753 34830 ft 439 kts 184°
2026-04-30 21:36 37.55851 -71.97602 34832 ft 436 kts 186°
2026-04-30 21:37 37.43694 -71.97135 34819 ft 438 kts 186°
2026-04-30 21:37 37.37575 -71.96854 34824 ft 438 kts 186°
2026-04-30 21:38 37.31503 -71.95779 34821 ft 456 kts 171°
2026-04-30 21:38 37.28537 -71.94205 34825 ft 470 kts 160°
2026-04-30 21:38 37.25787 -71.91890 34830 ft 481 kts 150°
2026-04-30 21:39 37.20561 -71.86543 34808 ft 487 kts 149°
2026-04-30 21:39 37.15316 -71.81203 34822 ft 487 kts 149°
2026-04-30 21:40 37.10040 -71.75923 34807 ft 487 kts 150°
2026-04-30 21:40 37.04737 -71.70635 34813 ft 487 kts 150°
2026-04-30 21:41 36.99442 -71.65356 34807 ft 487 kts 150°
2026-04-30 21:41 36.94159 -71.60098 34810 ft 487 kts 150°
2026-04-30 21:42 36.88844 -71.54820 34791 ft 485 kts 150°
2026-04-30 21:42 36.83602 -71.49626 34810 ft 483 kts 150°
2026-04-30 21:43 36.78327 -71.44409 34812 ft 483 kts 150°
2026-04-30 21:43 36.73048 -71.39198 34811 ft 483 kts 150°
2026-04-30 21:44 36.67785 -71.34011 34785 ft 486 kts 150°
2026-04-30 21:44 36.62486 -71.28794 34802 ft 488 kts 150°
2026-04-30 21:45 36.57135 -71.23538 34810 ft 488 kts 150°
2026-04-30 21:45 36.51798 -71.18309 34811 ft 488 kts 150°
2026-04-30 21:46 36.46491 -71.13110 34808 ft 488 kts 150°
2026-04-30 21:46 36.44900 -71.11553 34808 ft 488 kts 150°
2026-04-30 21:47 36.39600 -71.06394 34793 ft 490 kts 150°
2026-04-30 21:47 36.34227 -71.01146 34801 ft 491 kts 150°
2026-04-30 21:48 36.28842 -70.95902 34802 ft 491 kts 150°
2026-04-30 21:48 36.23491 -70.90706 34808 ft 491 kts 150°
2026-04-30 21:49 36.18087 -70.85465 34794 ft 491 kts 150°
2026-04-30 21:49 36.12726 -70.80281 34774 ft 494 kts 151°
2026-04-30 21:50 36.07265 -70.75015 34802 ft 498 kts 151°
2026-04-30 21:50 36.01792 -70.69733 34805 ft 498 kts 151°
2026-04-30 21:51 35.96355 -70.64502 34803 ft 498 kts 151°
2026-04-30 21:51 35.90881 -70.59237 34808 ft 498 kts 151°
2026-04-30 21:52 35.85404 -70.53986 34769 ft 499 kts 152°
2026-04-30 21:52 35.79906 -70.48729 34801 ft 504 kts 152°
2026-04-30 21:53 35.74351 -70.43421 34813 ft 504 kts 152°
2026-04-30 21:53 35.68804 -70.38127 34813 ft 504 kts 152°
2026-04-30 21:54 35.63276 -70.32864 34814 ft 504 kts 152°
2026-04-30 21:54 35.57744 -70.27607 34780 ft 504 kts 152°
2026-04-30 21:55 35.52160 -70.22312 34805 ft 507 kts 153°
2026-04-30 21:55 35.46567 -70.17017 34802 ft 508 kts 152°
2026-04-30 21:56 35.40975 -70.11732 34820 ft 509 kts 152°
2026-04-30 21:56 35.35347 -70.06419 34820 ft 509 kts 152°
2026-04-30 21:57 35.29747 -70.01152 34823 ft 509 kts 152°
2026-04-30 21:57 35.24113 -69.95854 34815 ft 509 kts 153°
2026-04-30 21:58 35.18522 -69.90611 34822 ft 509 kts 153°
2026-04-30 21:58 35.12886 -69.85330 34795 ft 510 kts 152°
2026-04-30 21:59 35.07270 -69.80077 34821 ft 511 kts 152°
2026-04-30 22:00 34.98816 -69.72191 34815 ft 510 kts 152°
2026-04-30 22:00 34.90353 -69.64317 34833 ft 509 kts 152°
2026-04-30 22:01 34.84710 -69.59077 34830 ft 509 kts 152°
2026-04-30 22:01 34.79090 -69.53871 34829 ft 509 kts 152°
2026-04-30 22:02 34.73452 -69.48653 34824 ft 508 kts 151°
2026-04-30 22:02 34.67850 -69.43482 34820 ft 508 kts 151°
2026-04-30 22:03 34.62209 -69.38280 34832 ft 508 kts 151°
2026-04-30 22:03 34.56567 -69.33088 34834 ft 508 kts 151°
2026-04-30 22:04 34.50954 -69.27930 34837 ft 508 kts 151°
2026-04-30 22:05 34.42482 -69.20167 34825 ft 508 kts 151°
2026-04-30 22:05 34.36822 -69.14996 34836 ft 513 kts 150°
2026-04-30 22:06 34.31116 -69.09779 34840 ft 513 kts 150°
2026-04-30 22:06 34.22548 -69.01971 34845 ft 513 kts 151°
2026-04-30 22:07 34.16867 -68.96807 34843 ft 513 kts 151°
2026-04-30 22:07 34.11135 -68.91604 34847 ft 513 kts 151°
2026-04-30 22:08 34.05455 -68.86460 34851 ft 513 kts 151°
2026-04-30 22:08 33.99723 -68.81283 34848 ft 515 kts 151°
2026-04-30 22:09 33.93980 -68.76096 34850 ft 515 kts 151°
2026-04-30 22:09 33.88273 -68.70956 34854 ft 515 kts 151°
2026-04-30 22:10 33.82522 -68.65780 34847 ft 515 kts 151°
2026-04-30 22:10 33.76768 -68.60611 34858 ft 515 kts 151°
2026-04-30 22:11 33.68170 -68.52909 34862 ft 515 kts 151°
2026-04-30 22:12 33.62443 -68.47787 34861 ft 515 kts 151°
2026-04-30 22:12 33.56687 -68.42645 34865 ft 515 kts 151°
2026-04-30 22:13 33.50982 -68.37560 34862 ft 512 kts 151°
2026-04-30 22:13 33.45237 -68.32449 34871 ft 512 kts 151°
2026-04-30 22:14 33.39537 -68.27388 34869 ft 512 kts 151°
2026-04-30 22:14 33.33814 -68.22313 34872 ft 512 kts 151°
2026-04-30 22:15 33.28067 -68.17224 34870 ft 513 kts 150°
2026-04-30 22:15 33.23023 -68.11021 34863 ft 532 kts 127°
2026-04-30 22:15 33.21338 -68.07111 34872 ft 539 kts 114°
2026-04-30 22:16 33.20341 -68.02805 34879 ft 543 kts 100°
2026-04-30 22:17 33.19557 -67.84827 34875 ft 543 kts 92°
2026-04-30 22:17 33.18980 -67.71284 34888 ft 547 kts 93°
2026-04-30 22:18 33.18394 -67.57689 34877 ft 548 kts 93°
2026-04-30 22:19 33.17801 -67.44083 34885 ft 546 kts 92°
2026-04-30 22:20 33.17283 -67.31996 34884 ft 546 kts 93°
2026-04-30 22:20 33.16658 -67.18478 34883 ft 545 kts 92°
2026-04-30 22:21 33.16235 -67.09455 34884 ft 543 kts 92°
2026-04-30 22:21 33.15807 -67.00458 34886 ft 543 kts 92°
2026-04-30 22:22 33.15374 -66.91441 34888 ft 543 kts 93°
2026-04-30 22:22 33.14934 -66.82458 34887 ft 542 kts 92°
2026-04-30 22:23 33.14487 -66.73515 34891 ft 542 kts 92°
2026-04-30 22:23 33.14035 -66.64505 34891 ft 542 kts 92°
2026-04-30 22:24 33.13573 -66.55523 34887 ft 542 kts 92°
2026-04-30 22:24 33.13109 -66.46588 34888 ft 539 kts 92°
2026-04-30 22:25 33.12636 -66.37637 34889 ft 539 kts 92°
2026-04-30 22:25 33.12164 -66.28764 34889 ft 539 kts 92°
2026-04-30 22:26 33.11441 -66.15487 34890 ft 532 kts 93°
2026-04-30 22:27 33.10955 -66.06677 34914 ft 534 kts 93°
2026-04-30 22:27 33.10209 -65.93356 34895 ft 537 kts 94°
2026-04-30 22:28 33.09454 -65.80096 34896 ft 532 kts 94°
2026-04-30 22:29 33.08416 -65.62531 34890 ft 532 kts 94°
2026-04-30 22:31 33.06593 -65.32222 33600 ft 512 kts 95°
2026-04-30 22:32 33.02921 -65.20412 29490 ft 512 kts 134°
2026-04-30 22:32 32.98059 -65.14244 26545 ft 508 kts 137°
2026-04-30 22:33 32.90836 -65.05150 22267 ft 500 kts 136°
2026-04-30 22:33 32.86141 -64.99169 19896 ft 484 kts 136°
2026-04-30 22:34 32.79438 -64.90676 16401 ft 457 kts 136°
2026-04-30 22:35 32.75118 -64.85224 14030 ft 450 kts 135°
2026-04-30 22:36 32.67012 -64.74986 11662 ft 383 kts 135°
2026-04-30 22:36 32.65225 -64.72735 11290 ft 364 kts 135°
2026-04-30 22:37 32.60176 -64.66389 9613 ft 336 kts 135°
2026-04-30 22:37 32.58613 -64.64424 9354 ft 320 kts 135°
2026-04-30 22:37 32.55582 -64.60620 8046 ft 317 kts 135°
2026-04-30 22:38 32.52512 -64.56773 6397 ft 322 kts 135°
2026-04-30 22:38 32.49503 -64.53003 5331 ft 306 kts 136°
2026-04-30 22:39 32.48080 -64.51202 5013 ft 292 kts 135°
2026-04-30 22:39 32.44259 -64.46061 3922 ft 274 kts 134°
2026-04-30 22:40 32.39594 -64.44043 2885 ft 235 kts 199°
2026-04-30 22:41 32.35130 -64.45495 2503 ft 213 kts 199°
2026-04-30 22:41 32.33154 -64.47570 2175 ft 187 kts 253°
2026-04-30 22:42 32.33880 -64.53152 1985 ft 159 kts 280°
2026-04-30 22:43 32.34275 -64.55449 1829 ft 134 kts 281°
2026-04-30 22:43 32.34642 -64.57593 1518 ft 132 kts 281°
2026-04-30 22:44 32.34950 -64.59381 1201 ft 121 kts 280°
2026-04-30 22:45 32.35602 -64.63182 593 ft 120 kts 280°
2026-04-30 22:45 32.35933 -64.65128 285 ft 120 kts 279°
2026-04-30 22:46 32.36257 -64.66985 12 ft 105 kts 281°
2026-04-30 22:47 32.36540 -64.68658 12 ft 46 kts 280°
2026-04-30 22:47 32.36588 -64.69257 11 ft 30 kts 244°
2026-04-30 22:48 32.36408 -64.69738 10 ft 33 kts 250°
2026-04-30 22:49 32.36162 -64.70144 10 ft 13 kts 238°
2026-04-30 22:49 32.36072 -64.70223 10 ft 2 kts 229°
2026-04-30 22:50 32.36053 -64.70252 10 ft 0 kts 241°